Regional Weather Roundup
Issued by NWS

Home | Current Version | Previous Version | Graphics & Text | Print | Product List | Glossary On
Versions: 1 2 3 4 5 6 7 8 9 10 11 12 13 14 15 16 17 18 19 20 21 22 23 24 25 26 27 28 29 30 31 32 33 34 35 36 37 38 39 40 41 42 43 44 45 46 47 48 49 50
000
ASUS43 KDTX 300701
RWRMI
MICHIGAN HOURLY REGIONAL WEATHER ROUNDUP
NATIONAL WEATHER SERVICE DETROIT/PONTIAC MI
300 AM EDT TUE SEP 30 2014

NOTE: "FAIR" INDICATES FEW OR NO CLOUDS BELOW 12,000 FEET WITH NO
SIGNIFICANT WEATHER AND/OR OBSTRUCTION TO VISIBILITY.

MIZ047>049-052>055-059>063-066>070-074>076-081>083-300800-
SOUTHEAST LOWER MICHIGAN

CITY           SKY/WX    TMP DP  RH WIND       PRES   REMARKS
ADRIAN         CLOUDY    63  60  90 N8        29.91R
ALMA           CLOUDY    51  48  92 NW5       29.96S
ANN ARBOR      LGT RAIN  57  53  86 N13       29.90S
BAD AXE        CLOUDY    52  52 100 N14       29.91R FOG
CARO           DRIZZLE   54  52  95 NW10      29.92R
DETROIT CITY   RAIN      63  61  93 N5        29.90S
DETROIT        RAIN      61  59  93 NW9       29.89R FOG
FLINT          CLOUDY    54  51  90 NW10      29.94R FOG
GROSSE ILE     MOCLDY    64  61  88 NW3       29.86F
HILLSDALE      LGT RAIN  60  60 100 N9        29.91F
HOWELL         CLOUDY    52  51  95 NW13      29.92S

CITY           SKY/WX    TMP DP  RH WIND       PRES   REMARKS
JACKSON        CLOUDY    52  51  97 N8        29.93S
LAMBERTVILLE   MOCLDY    61  55  82 CALM      29.89S
LANSING        CLOUDY    50  47  89 NW10      29.96S
LAPEER         RAIN      54  52  94 NW6       29.91S
MASON          CLOUDY    51  50  94 NW9       29.94S
MONROE         LGT RAIN  61  57  88 CALM      29.86F
MT. CLEMENS    RAIN      58  58  99 NW12      29.87R
PONTIAC        LGT RAIN  55  52  89 NW8       29.90R
PORT HOPE        N/A     55  53  93 VRB3      29.88R
PORT HURON     HVY RAIN  57  57 100 NW5       29.89R
TRI CITIES     CLOUDY    53  49  86 N15       29.96R
TROY           RAIN      59  56  91 NW6       29.90S
SAGINAW HB     CLOUDY    52  52 100 NW10G18   29.94R FOG
$$
MIZ043>046-050>051-056>058-064>065-071>073-077>080-300800-
SOUTHWEST LOWER MICHIGAN

CITY           SKY/WX    TMP DP  RH WIND       PRES   REMARKS
BATTLE CREEK   CLOUDY    53  50  89 N8        29.97R
BIG RAPIDS     CLOUDY    47  47 100 NW6       29.98S
COLDWATER      CLOUDY    59  58  96 N13       29.94R
FREMONT        CLOUDY    47  46  95 N9        30.01R
HOLLAND        CLOUDY    50  47  89 VRB5      30.01R
GRAND RAPIDS   CLOUDY    50  48  93 N12       29.99R
IONIA          CLOUDY    51  49  95 NW5       29.97S
KALAMAZOO      LGT RAIN  52  50  93 N13       29.98R
LUDINGTON      CLOUDY    49  48  96 N7        30.03S
MARSHALL       LGT RAIN  52  51  97 N7        29.95R
MOUNT PLEASANT CLOUDY    51  48  90 NW3       29.96S
MUSKEGON       CLOUDY    49  44  83 N10G16    30.02R
SOUTH HAVEN    CLOUDY    51  49  93 N6        30.00S
$$
MIZ016>042-300800-
NORTHERN LOWER MICHIGAN

CITY           SKY/WX    TMP DP  RH WIND       PRES   REMARKS
ALPENA         CLOUDY    47  45  93 N12       29.97S
BEAVER ISLAND  CLOUDY    45  42  89 N8G16     30.05S
BELLAIRE       CLOUDY    47  44  91 N6        30.02R
CADILLAC       LGT RAIN  46  46  98 N6        29.98R
CHARLEVOIX     CLOUDY    46  45  95 NE6       30.05S
FRANKFORT      LGT RAIN  48  45  87 N6        30.04R
GAYLORD        CLOUDY    43  42  97 VRB5      29.99R FOG
GRAYLING       CLOUDY    49  47  94 N7        29.99R
HARBOR SPRINGS CLOUDY    44  42  90 NE6       30.02S
HOUGHTON LAKE  CLOUDY    47  45  93 N7        29.98R
OSCODA         DRIZZLE   49  49  99 N9        29.93R
PELLSTON       CLOUDY    44  42  93 N7        30.03R
TRAVERSE CITY  LGT RAIN  49  46  90 N9        30.01R FOG
$$
MIZ007>008-015-300800-
EASTERN UPPER MICHIGAN

CITY           SKY/WX    TMP DP  RH WIND       PRES   REMARKS
MACKINAC ISLAN CLOUDY    43  41  92 N10G16    30.03R
NEWBERRY       CLOUDY    40  39  95 N7        30.05S
S. S. MARIE    CLOUDY    42  36  79 NE5       30.04R
$$
MIZ004>006-011>014-085-300800-
CENTRAL UPPER MICHIGAN

CITY           SKY/WX    TMP DP  RH WIND       PRES   REMARKS
MANISTIQUE     CLOUDY    41  39  93 N9G16     30.06S
SAWYER-GWINN   CLOUDY    40  37  89 N13       30.11S WCI  33
$$
MIZ001>003-009>011-084-300800-
WESTERN UPPER MICHIGAN

CITY           SKY/WX    TMP DP  RH WIND       PRES   REMARKS
IRON MOUNTAIN  CLOUDY    41  38  89 N9        30.12R
HOUGHTON       CLOUDY    41  35  79 CALM      30.15F
COPPER HARBOR    N/A     44  35  70 SE6       30.16S
$$

ABBREVIATIONS USED IN REMARKS
   TC - TEMPERATURE IN CELSIUS
  WCI - WIND CHILL INDEX
   HX - HEAT INDEX
  VSB - VISIBILITY



USA.gov is the U.S. government's official web portal to all federal, state and local government web resources and services.